Hourly Weather Bolshoy Volochek

Today, 4 August, Wednesday

Time Temperature Precipitation Wind Pressure Humidity
00:00 +12°C° 0 mm 2 mps 753 mmHg 91%
01:00 +10°C° 0 mm 2 mps 753 mmHg 92%
02:00 +10°C° 0 mm 2 mps 754 mmHg 94%
03:00 +11°C° 0 mm 1 mps 754 mmHg 92%
04:00 +11°C° 0 mm 1 mps 754 mmHg 89%
05:00 +11°C° 0 mm 1 mps 755 mmHg 87%
06:00 +13°C° 0 mm 1 mps 755 mmHg 81%
07:00 +14°C° 0 mm 1 mps 755 mmHg 75%
08:00 +15°C° 0 mm 1 mps 756 mmHg 69%
09:00 +17°C° 0 mm 2 mps 756 mmHg 62%
10:00 +18°C° 0 mm 2 mps 756 mmHg 55%
11:00 +20°C° 0 mm 2 mps 756 mmHg 48%
12:00 +20°C° 0 mm 2 mps 756 mmHg 47%
13:00 +20°C° 0 mm 2 mps 756 mmHg 47%
14:00 +20°C° 0 mm 2 mps 756 mmHg 46%
15:00 +20°C° 0 mm 2 mps 756 mmHg 48%
16:00 +21°C° 0 mm 1 mps 756 mmHg 49%
17:00 +21°C° 0 mm 1 mps 756 mmHg 51%
18:00 +19°C° 0 mm 1 mps 756 mmHg 57%
19:00 +18°C° 0 mm 1 mps 756 mmHg 62%
20:00 +14°C° 0 mm 0 mps 756 mmHg 68%
21:00 +15°C° 0 mm 1 mps 757 mmHg 68%
22:00 +14°C° 0 mm 1 mps 757 mmHg 69%
23:00 +14°C° 0 mm 1 mps 757 mmHg 69%

Tomorrow, 5 August, Thursday

Time Temperature Precipitation Wind Pressure Humidity
00:00 +14°C° 0 mm 1 mps 757 mmHg 70%
01:00 +13°C° 0 mm 1 mps 757 mmHg 70%
02:00 +13°C° 0 mm 1 mps 757 mmHg 70%
03:00 +13°C° 0 mm 1 mps 757 mmHg 72%
04:00 +12°C° 0 mm 1 mps 757 mmHg 74%
05:00 +12°C° 0 mm 1 mps 757 mmHg 76%
06:00 +14°C° 0 mm 1 mps 757 mmHg 69%
07:00 +16°C° 0 mm 2 mps 757 mmHg 62%
08:00 +18°C° 0 mm 2 mps 757 mmHg 54%
09:00 +19°C° 0 mm 2 mps 757 mmHg 49%
10:00 +21°C° 0 mm 2 mps 757 mmHg 44%
11:00 +23°C° 0 mm 2 mps 756 mmHg 39%
12:00 +23°C° 0 mm 2 mps 756 mmHg 39%
13:00 +23°C° 0 mm 2 mps 756 mmHg 39%
14:00 +23°C° 0 mm 2 mps 756 mmHg 40%
15:00 +23°C° 0 mm 2 mps 756 mmHg 45%
16:00 +21°C° 0 mm 2 mps 756 mmHg 51%
17:00 +21°C° 0 mm 1 mps 756 mmHg 56%
18:00 +20°C° 0 mm 1 mps 756 mmHg 64%
19:00 +19°C° 0 mm 1 mps 756 mmHg 72%
20:00 +16°C° 0 mm 1 mps 756 mmHg 80%
21:00 +15°C° 0 mm 1 mps 756 mmHg 84%
22:00 +14°C° 0 mm 1 mps 756 mmHg 89%
23:00 +13°C° 0 mm 1 mps 756 mmHg 94%

Day after tomorrow, 6 August, Friday

Time Temperature Precipitation Wind Pressure Humidity
00:00 +12°C° 0 mm 1 mps 756 mmHg 95%
01:00 +12°C° 0 mm 1 mps 756 mmHg 95%
02:00 +12°C° 0 mm 2 mps 756 mmHg 96%
03:00 +12°C° 0 mm 2 mps 756 mmHg 95%
04:00 +12°C° 0 mm 2 mps 756 mmHg 95%
05:00 +11°C° 0 mm 3 mps 755 mmHg 94%
06:00 +13°C° 0 mm 3 mps 755 mmHg 85%
07:00 +15°C° 0 mm 4 mps 755 mmHg 75%
08:00 +18°C° 0 mm 4 mps 755 mmHg 65%
09:00 +19°C° 0 mm 4 mps 755 mmHg 59%
10:00 +20°C° 0 mm 5 mps 755 mmHg 52%
11:00 +22°C° 0 mm 5 mps 755 mmHg 46%
12:00 +22°C° 0 mm 5 mps 754 mmHg 46%
13:00 +22°C° 0 mm 5 mps 754 mmHg 45%
14:00 +22°C° 0 mm 4 mps 754 mmHg 45%
15:00 +22°C° 0 mm 4 mps 754 mmHg 47%
16:00 +22°C° 0 mm 4 mps 754 mmHg 49%
17:00 +21°C° 0 mm 4 mps 754 mmHg 51%
18:00 +20°C° 0 mm 4 mps 754 mmHg 55%
19:00 +19°C° 0 mm 4 mps 754 mmHg 59%
20:00 +18°C° 0 mm 4 mps 753 mmHg 63%
21:00 +17°C° 0 mm 4 mps 754 mmHg 64%
22:00 +17°C° 0 mm 4 mps 754 mmHg 65%
23:00 +15°C° 0 mm 5 mps 754 mmHg 66%

7 August, Saturday

Time Temperature Precipitation Wind Pressure Humidity
00:00 +14°C° 0.9 mm 5 mps 753 mmHg 75%
01:00 +13°C° 0.9 mm 5 mps 753 mmHg 84%
02:00 +12°C° 0.9 mm 5 mps 753 mmHg 93%
03:00 +12°C° 0.7 mm 5 mps 753 mmHg 94%
04:00 +10°C° 0.7 mm 5 mps 753 mmHg 96%
05:00 +10°C° 0.7 mm 5 mps 753 mmHg 97%
06:00 +12°C° 0.1 mm 5 mps 753 mmHg 97%
07:00 +12°C° 0.1 mm 5 mps 752 mmHg 97%
08:00 +12°C° 0.1 mm 5 mps 752 mmHg 97%
09:00 +13°C° 0.1 mm 5 mps 752 mmHg 97%
10:00 +13°C° 0.1 mm 5 mps 752 mmHg 97%
11:00 +14°C° 0.1 mm 4 mps 752 mmHg 97%
12:00 +14°C° 0.1 mm 4 mps 752 mmHg 97%
13:00 +15°C° 0.1 mm 4 mps 752 mmHg 97%
14:00 +15°C° 0.1 mm 4 mps 752 mmHg 98%
15:00 +15°C° 0 mm 4 mps 752 mmHg 98%
16:00 +15°C° 0 mm 4 mps 752 mmHg 98%
17:00 +17°C° 0 mm 4 mps 752 mmHg 98%
18:00 +17°C° 0.3 mm 4 mps 752 mmHg 98%
19:00 +17°C° 0.3 mm 3 mps 752 mmHg 98%
20:00 +17°C° 0.3 mm 3 mps 752 mmHg 98%
21:00 +17°C° 0.3 mm 3 mps 752 mmHg 98%
22:00 +16°C° 0.3 mm 3 mps 752 mmHg 98%
23:00 +16°C° 0.3 mm 3 mps 752 mmHg 98%

8 August, Sunday

Time Temperature Precipitation Wind Pressure Humidity
00:00 +16°C° 0.1 mm 2 mps 752 mmHg 99%
01:00 +16°C° 0.1 mm 2 mps 752 mmHg 99%
02:00 +16°C° 0.1 mm 2 mps 752 mmHg 99%
03:00 +16°C° 0.1 mm 1 mps 752 mmHg 99%
04:00 +16°C° 0.1 mm 1 mps 752 mmHg 99%
05:00 +16°C° 0.1 mm 1 mps 752 mmHg 99%
06:00 +16°C° 0.1 mm 1 mps 752 mmHg 98%
07:00 +16°C° 0.1 mm 1 mps 752 mmHg 98%
08:00 +16°C° 0.1 mm 1 mps 752 mmHg 97%
09:00 +18°C° 0 mm 1 mps 752 mmHg 92%
10:00 +19°C° 0 mm 1 mps 752 mmHg 88%
11:00 +20°C° 0 mm 1 mps 752 mmHg 83%
12:00 +20°C° 0.1 mm 1 mps 753 mmHg 82%
13:00 +19°C° 0.1 mm 2 mps 753 mmHg 81%
14:00 +19°C° 0.1 mm 2 mps 753 mmHg 80%
15:00 +19°C° 0 mm 2 mps 754 mmHg 81%
16:00 +19°C° 0 mm 2 mps 754 mmHg 83%
17:00 +20°C° 0 mm 1 mps 754 mmHg 84%
18:00 +19°C° 0 mm 1 mps 754 mmHg 86%
19:00 +19°C° 0 mm 1 mps 755 mmHg 88%
20:00 +18°C° 0 mm 1 mps 755 mmHg 91%
21:00 +18°C° 0 mm 1 mps 755 mmHg 92%
22:00 +18°C° 0 mm 1 mps 755 mmHg 93%
23:00 +18°C° 0 mm 1 mps 755 mmHg 94%

9 August, Monday

Time Temperature Precipitation Wind Pressure Humidity
00:00 +16°C° 0 mm 1 mps 756 mmHg 95%
01:00 +16°C° 0 mm 1 mps 756 mmHg 97%
02:00 +16°C° 0 mm 1 mps 756 mmHg 98%
03:00 +15°C° 0 mm 1 mps 756 mmHg 98%
04:00 +15°C° 0 mm 1 mps 756 mmHg 98%
05:00 +15°C° 0 mm 1 mps 756 mmHg 98%
06:00 +18°C° 0 mm 1 mps 756 mmHg 91%
07:00 +19°C° 0 mm 1 mps 757 mmHg 84%
08:00 +21°C° 0 mm 1 mps 757 mmHg 77%
09:00 +23°C° 0 mm 1 mps 757 mmHg 69%
10:00 +24°C° 0 mm 1 mps 757 mmHg 61%
11:00 +26°C° 0 mm 1 mps 757 mmHg 53%
12:00 +26°C° 0 mm 1 mps 757 mmHg 52%
13:00 +27°C° 0 mm 1 mps 757 mmHg 51%
14:00 +27°C° 0 mm 1 mps 757 mmHg 50%
15:00 +26°C° 0.2 mm 1 mps 757 mmHg 57%
16:00 +25°C° 0.2 mm 1 mps 757 mmHg 64%
17:00 +24°C° 0.2 mm 1 mps 757 mmHg 71%
18:00 +23°C° 0.2 mm 1 mps 757 mmHg 76%
19:00 +22°C° 0.2 mm 1 mps 757 mmHg 81%
20:00 +20°C° 0.2 mm 1 mps 757 mmHg 86%
21:00 +19°C° 0 mm 1 mps 757 mmHg 89%
22:00 +19°C° 0 mm 1 mps 757 mmHg 92%
23:00 +17°C° 0 mm 2 mps 757 mmHg 95%
Show more

We Need Your Consent

Meteoprog and our Service Providers may store and access personal data such as cookies, device identifiers or other similar technologies on your device and process such data to personalise content and ads, as well as provide social media features and to analyse the traffic.

  • Store and/or access information on your device

    Cookies, device identifiers or other information can be stored or accessed on your device for the purposes indicated above.

  • Personalised ads and content, ad and content measurement, audience insights, and products development

    Ads and content can be personalised based on a profile. More data can be added to better personalise ads and content. Ad and content performance can be measured. Insights about the audience who saw the ads and content can be derived. Such data can be used to develop or improve user’s experience, systems and software.

By clicking ‘I Agree’ you will allow the use of indicated cookies, device identifiers, web beacons or other similar technologies. Your settings can be changed in the browser on your device.

For certain purposes, legitimate interests may be relied on, rather than consent. You can read more about this in our Privacy and Cookie Policy.